Regional Weather Roundup
Issued by NWS

Home | Current Version | Previous Version | Text Only | Print | Product List | Glossary Off
Versions: 1 2 3 4 5 6 7 8 9 10 11 12 13 14 15 16 17 18 19 20 21 22 23 24 25 26 27 28 29 30 31 32 33 34 35 36 37 38 39 40 41 42 43 44 45 46 47 48 49 50

000
ASUS43 KMKX 301700
RWRWI

WISCONSIN REGIONAL WEATHER ROUNDUP
NATIONAL WEATHER SERVICE MILWAUKEE/SULLIVAN WI
1100 AM CST FRI JAN 30 2015

NOTE: "FAIR" INDICATES FEW OR NO CLOUDS BELOW 12,000 FEET WITH NO
SIGNIFICANT WEATHER AND/OR OBSTRUCTIONS TO VISIBILITY.

WIZ001-002-006>008-014>016-023>028-301800-
NORTHWEST WISCONSIN

CITY           SKY/WX    TMP DP  RH WIND       PRES   REMARKS
SUPERIOR ARPT  CLOUDY     8   2  76 SW5       30.51S WCI   0
ASHLAND        PTSUNNY   12   3  67 VRB5      30.49F WCI   4
HAYWARD        CLOUDY     8   1  73 SW5       30.46F WCI   0
SIREN          MOSUNNY    9   1  69 S6        30.49F WCI  -1
CUMBERLAND     CLOUDY     7   1  78 S3        30.48F
RICE LAKE      PTSUNNY    8   1  73 CALM      30.51S
CHETEK         MOSUNNY    9   2  73 CALM      30.51S
LADYSMITH      CLOUDY     9   3  77 CALM      30.50S
EAU CLAIRE     CLOUDY    11   3  70 W6        30.52S WCI   1
MENOMONIE      CLOUDY    11   3  68 CALM      30.54R
NEW RICHMOND   CLOUDY    11   3  70 S5        30.51F WCI   3
OSCEOLA        CLOUDY    11   4  70 SE5       30.55F WCI   3
$$

WIZ003>005-009-010-017-018-301800-
NORTH CENTRAL WISCONSIN

CITY           SKY/WX    TMP DP  RH WIND       PRES   REMARKS
MANITOWISH WTR PTSUNNY   10   2  70 SW3       30.41S
ARBOR VITAE    MOSUNNY   13   4  68 CALM      30.41S
WOODRUFF       MOSUNNY   13   4  68 CALM      30.41S
RHINELANDER    PTSUNNY   13   3  64 W5        30.42S WCI   5
EAGLE RIVER    CLOUDY    11   2  67 CALM      30.41S
LAND O LAKES   CLOUDY    12   4  70 NW3       30.41S
PHILLIPS       CLOUDY    10   2  72 CALM      30.44F
TOMAHAWK       MOSUNNY   12   3  66 CALM      30.46R
MEDFORD        PTSUNNY   11   4  73 CALM      30.45S
MERRILL        PTSUNNY   13   4  68 CALM      30.47R
$$

WIZ029-030-035-036-043>047-301800-
CENTRAL WISCONSIN

CITY           SKY/WX    TMP DP  RH WIND       PRES   REMARKS
WAUSAU         CLOUDY    14   4  64 CALM      30.46F
MOSINEE        SUNNY     14   5  67 VRB3      30.49S
MARSHFIELD     MOSUNNY   13   5  70 CALM      30.48F
STEVENS POINT  CLOUDY    13   4  64 CALM      30.49F
WAUPACA        PTSUNNY   20   6  53 CALM      30.51S
WAUTOMA        NOT AVBL
WISC RAPIDS    MOSUNNY   17   5  59 NW3       30.52R
CAMP DOUGLAS   NOT AVBL
$$

WIZ011>013-019>022-031-037>040-048>050-301800-
NORTHEAST WISCONSIN

CITY           SKY/WX    TMP DP  RH WIND       PRES   REMARKS
ANTIGO         CLOUDY    12   4  70 CALM      30.44S
SHAWANO        SUNNY     19   4  54 CALM      30.52S
OCONTO         PTSUNNY   16   4  58 MISG      30.53S
STURGEON BAY   SUNNY     12   1  62 N8        30.53F WCI   1
GREEN BAY      MOSUNNY   19   6  57 NW7       30.52F WCI  10
MANITOWOC      NOT AVBL
APPLETON       PTSUNNY   18   3  53 CALM      30.51S
CLINTONVILLE   MOSUNNY   19   5  53 CALM      30.52R
OSHKOSH        SUNNY     19   6  57 NW3       30.51F
$$

WIZ032>034-041-042-053>061-301800-
SOUTHWEST WISCONSIN

CITY           SKY/WX    TMP DP  RH WIND       PRES   REMARKS
LA CROSSE      PTSUNNY   17   5  59 CALM      30.55F
SPARTA         PTSUNNY   15   6  67 CALM      30.55S
VIROQUA        PTSUNNY   15   7  71 CALM      30.50F
BOSCOBEL       SUNNY     20   7  57 CALM      30.56S
PRAIRIE DU CHI MOSUNNY   18   8  63 CALM      30.57S
PLATTEVILLE    MOSUNNY   19  11  69 CALM      30.53R
$$

WIZ056-057-062-063-064-067-068-301800-
SOUTH CENTRAL WISCONSIN

CITY           SKY/WX    TMP DP  RH WIND       PRES   REMARKS
REEDSBURG      MOSUNNY   16   8  68 W3        30.53S
BARABOO/DELLS  MOSUNNY   17   6  63 CALM      30.52F
LONE ROCK      NOT AVBL
MINERAL POINT  SUNNY     21  10  63 CALM      30.51F
MADISON        PTSUNNY   20   8  60 W6        30.53R WCI  12
MIDDLETON      SUNNY     21   9  58 CALM      30.54R
WATERTOWN      MOSUNNY   21   9  58 NW3       30.52S
MONROE         SUNNY     21  10  63 CALM      30.52R
JANESVILLE     MOSUNNY   25   9  50 N5        30.53S WCI  19
$$

WIZ051-052-058>065-066-070>072-301800-
SOUTHEAST WISCONSIN

CITY           SKY/WX    TMP DP  RH WIND       PRES   REMARKS
MILWAUKEE      MOSUNNY   23   6  48 VRB3      30.53R
WAUKESHA       SUNNY     19   7  58 NW3       30.52R
MILWAUKEE/TIMM NOT AVBL
RACINE         PTSUNNY   24   9  52 N5        30.54R WCI  18
BURLINGTON     SUNNY     20   7  55 NW5       30.52S WCI  14
KENOSHA        SUNNY     24   8  50 NW6       30.52S WCI  17
FOND DU LAC    SUNNY     20   5  52 CALM      30.51F
SHEBOYGAN      SUNNY     21   7  54 VRB3      30.52S
WEST BEND      SUNNY     21   7  53 CALM      30.51S
JUNEAU         SUNNY     19   7  60 NW5       30.52S WCI  12
$$

LSZ147-162-301800-
LAKE SUPERIOR

STATION/POSITION TIME  TEMP    WIND        PRES    WAVE
                       AIR SEA DIR/SP/G            HT/PER
                 (UTC) (F)     (DEG/KT/KT) (MB)    (FT/S)
DEVILS ISLAND    1600   13     260/  9/ 12 1034.0R
PORT WING        1640   11     190/  7/  9 1032.8F
SAXON HARBOR     1600   13      CALM  /  7 1032.8S
$$

LMZ867-665-643>646-301800-
LAKE MICHIGAN

STATION/POSITION TIME  TEMP    WIND        PRES    WAVE
                       AIR SEA DIR/SP/G            HT/PER
                 (UTC) (F)     (DEG/KT/KT) (MB)    (FT/S)
NORTHPORT PIER   1611   14     310/ 14/ 17 1033.5R
SISTER BAY       1513   16     350/  9/ 11   N/A
KEWAUNEE LAKESHO 1600   16     350/  6/ 11 1032.6R
SHEBOYGAN LAKESH 1600   18      20/ 10/ 11 1035.2R
PORT WASHINGTON  1600   22      10/  3/  7 1034.5R
MILWAUKEE LAKESH 1600   21     360/  6/  9   N/A
KENOSHA   LAKESH 1600   22     360/  7/ 10 1033.5R
$$

TC  - TEMPERATURE IN CELSIUS
VSB - VISIBILITY IN STATUTE MILES
WCI - WIND CHILL INDEX
HX  - HEAT INDEX



USA.gov is the U.S. government's official web portal to all federal, state and local government web resources and services.